Radiation Dose at Monitoring Post of Fukushima Daini Nuclear Power Station
Date,Time,MP-1(microSv/h),MP-2(microSv/h),MP-3(microSv/h),MP-4(microSv/h),MP-5(microSv/h),MP-6(microSv/h),MP-7(microSv/h),Wind Direction,Wind Velocity(m/s),Rain
2014/08/28,00:00,0.633,0.432,0.667,0.606,0.605,0.268,0.232,north,2.6,Yes
2014/08/28,00:10,0.633,0.433,0.668,0.606,0.605,0.270,0.231,north,2.5,Yes
2014/08/28,00:20,0.633,0.432,0.666,0.607,0.605,0.271,0.231,north,2.7,Yes
2014/08/28,00:30,0.631,0.431,0.666,0.606,0.604,0.269,0.230,north,2.5,No
2014/08/28,00:40,0.632,0.431,0.664,0.606,0.602,0.270,0.232,north,2.4,No
2014/08/28,00:50,0.632,0.432,0.668,0.605,0.605,0.268,0.231,north,2.2,No
2014/08/28,01:00,0.633,0.434,0.667,0.604,0.605,0.270,0.231,north,2.0,No
2014/08/28,01:10,0.631,0.433,0.666,0.607,0.604,0.270,0.231,north,2.2,Yes
2014/08/28,01:20,0.633,0.433,0.669,0.606,0.603,0.268,0.231,north,1.8,Yes
2014/08/28,01:30,0.632,0.433,0.668,0.605,0.603,0.270,0.231,north,1.7,Yes
2014/08/28,01:40,0.633,0.433,0.668,0.604,0.604,0.267,0.231,north,1.9,Yes
2014/08/28,01:50,0.632,0.434,0.667,0.604,0.604,0.270,0.233,north,2.4,Yes
2014/08/28,02:00,0.633,0.433,0.667,0.607,0.604,0.270,0.231,north-northwest,2.0,No
2014/08/28,02:10,0.631,0.433,0.668,0.605,0.605,0.269,0.232,north-northwest,2.2,Yes
2014/08/28,02:20,0.632,0.433,0.668,0.605,0.603,0.271,0.231,north-northwest,1.9,Yes
2014/08/28,02:30,0.631,0.433,0.667,0.604,0.604,0.270,0.231,north-northwest,2.2,Yes
2014/08/28,02:40,0.632,0.432,0.665,0.606,0.605,0.271,0.231,north-northwest,2.2,Yes
2014/08/28,02:50,0.631,0.432,0.667,0.604,0.605,0.269,0.232,west-northwest,1.4,Yes
2014/08/28,03:00,0.629,0.431,0.665,0.603,0.603,0.270,0.230,north-northeast,0.9,Yes
2014/08/28,03:10,0.629,0.433,0.663,0.603,0.604,0.270,0.233,northwest,2.0,Yes
2014/08/28,03:20,0.630,0.433,0.663,0.602,0.603,0.269,0.233,northwest,2.2,Yes
2014/08/28,03:30,0.629,0.433,0.663,0.603,0.605,0.272,0.232,west-northwest,3.2,Yes
2014/08/28,03:40,0.628,0.433,0.661,0.603,0.604,0.270,0.232,west-northwest,3.4,Yes
2014/08/28,03:50,0.627,0.432,0.660,0.602,0.604,0.272,0.231,north-northwest,3.4,Yes
2014/08/28,04:00,0.628,0.433,0.660,0.599,0.606,0.272,0.234,north-northwest,3.1,Yes
2014/08/28,04:10,0.627,0.435,0.658,0.599,0.605,0.271,0.233,northwest,2.0,Yes
2014/08/28,04:20,0.628,0.434,0.661,0.599,0.607,0.272,0.234,north,1.9,Yes
2014/08/28,04:30,0.627,0.434,0.660,0.599,0.605,0.273,0.233,north,2.2,Yes
2014/08/28,04:40,0.627,0.433,0.662,0.601,0.607,0.273,0.234,north-northwest,2.3,Yes
2014/08/28,04:50,0.629,0.435,0.661,0.602,0.607,0.272,0.233,north-northwest,2.2,Yes
2014/08/28,05:00,0.627,0.432,0.661,0.601,0.607,0.271,0.234,north,2.9,Yes
2014/08/28,05:10,0.629,0.432,0.660,0.601,0.604,0.270,0.231,north,3.3,Yes
2014/08/28,05:20,0.628,0.432,0.660,0.601,0.604,0.269,0.232,north-northwest,2.8,No
2014/08/28,05:30,0.625,0.432,0.660,0.602,0.603,0.270,0.229,north-northwest,2.4,No
2014/08/28,05:40,0.627,0.429,0.659,0.599,0.603,0.269,0.230,north-northwest,2.3,No
2014/08/28,05:50,0.625,0.429,0.660,0.598,0.602,0.270,0.230,north-northwest,2.5,No
2014/08/28,06:00,0.625,0.429,0.660,0.598,0.603,0.268,0.229,northwest,3.2,No
2014/08/28,06:10,0.627,0.427,0.658,0.601,0.602,0.268,0.229,northwest,1.9,No
2014/08/28,06:20,0.627,0.429,0.659,0.601,0.603,0.268,0.228,north,2.2,Yes
2014/08/28,06:30,0.626,0.429,0.658,0.599,0.603,0.267,0.230,north-northwest,3.1,Yes
2014/08/28,06:40,0.626,0.428,0.660,0.599,0.603,0.268,0.229,west-northwest,1.6,Yes
2014/08/28,06:50,0.626,0.430,0.659,0.599,0.602,0.267,0.231,north,1.7,Yes
2014/08/28,07:00,0.627,0.430,0.661,0.599,0.604,0.269,0.230,north-northwest,1.9,No
2014/08/28,07:10,0.627,0.430,0.661,0.599,0.603,0.268,0.231,north-northwest,1.6,No
2014/08/28,07:20,0.626,0.430,0.661,0.601,0.602,0.267,0.229,north,1.4,No
2014/08/28,07:30,0.627,0.430,0.660,0.600,0.602,0.270,0.229,north-northwest,1.0,No
2014/08/28,07:40,0.627,0.429,0.659,0.600,0.603,0.265,0.230,north-northwest,2.0,No
2014/08/28,07:50,0.626,0.429,0.660,0.600,0.605,0.268,0.229,north-northwest,1.8,No
2014/08/28,08:00,0.625,0.431,0.662,0.598,0.604,0.267,0.230,north-northwest,1.4,No
2014/08/28,08:10,0.626,0.430,0.661,0.599,0.603,0.267,0.230,northwest,1.6,No
2014/08/28,08:20,0.625,0.431,0.662,0.600,0.604,0.267,0.227,north,1.4,No
2014/08/28,08:30,0.627,0.430,0.662,0.599,0.605,0.265,0.230,north,1.7,No
2014/08/28,08:40,0.626,0.430,0.662,0.601,0.603,0.267,0.228,north,1.7,No
2014/08/28,08:50,0.626,0.430,0.663,0.600,0.604,0.267,0.229,north-northeast,1.6,No
2014/08/28,09:00,0.628,0.430,0.663,0.600,0.604,0.266,0.230,north,0.8,No
2014/08/28,09:10,0.626,0.430,0.663,0.601,0.603,0.265,0.228,-,CALM,No
2014/08/28,09:20,0.629,0.431,0.660,0.603,0.606,0.267,0.227,northeast,0.7,No
2014/08/28,09:30,0.630,0.433,0.661,0.604,0.604,0.267,0.229,east-northeast,1.7,No
2014/08/28,09:40,0.628,0.433,0.663,0.603,0.607,0.266,0.231,northeast,1.6,No
2014/08/28,09:50,0.629,0.434,0.663,0.605,0.606,0.266,0.229,northeast,1.4,No
2014/08/28,10:00,0.630,0.434,0.666,0.608,0.608,0.266,0.229,northeast,1.3,No
2014/08/28,10:10,0.633,0.435,0.667,0.608,0.608,0.266,0.230,east-northeast,1.8,No
2014/08/28,10:20,0.632,0.433,0.666,0.607,0.610,0.266,0.230,northeast,2.3,No
2014/08/28,10:30,0.633,0.436,0.667,0.610,0.607,0.268,0.228,north-northeast,2.2,No
2014/08/28,10:40,0.634,0.437,0.667,0.610,0.608,0.269,0.230,north-northeast,2.2,No
2014/08/28,10:50,0.636,0.436,0.667,0.610,0.609,0.267,0.232,northeast,2.4,No
2014/08/28,11:00,0.636,0.437,0.668,0.612,0.609,0.268,0.229,northeast,1.8,No
2014/08/28,11:10,0.635,0.436,0.667,0.610,0.609,0.268,0.229,north-northeast,1.6,No
2014/08/28,11:20,0.634,0.438,0.666,0.613,0.611,0.268,0.230,northeast,1.4,No
2014/08/28,11:30,0.639,0.436,0.668,0.611,0.608,0.269,0.230,north-northeast,2.3,No
2014/08/28,11:40,0.637,0.435,0.669,0.616,0.611,0.268,0.229,northeast,2.7,No
2014/08/28,11:50,0.638,0.438,0.670,0.617,0.609,0.268,0.228,northeast,1.6,No
2014/08/28,12:00,0.637,0.439,0.669,0.615,0.609,0.270,0.230,northeast,1.9,No
2014/08/28,12:10,0.641,0.436,0.670,0.617,0.607,0.268,0.231,east-northeast,0.9,No
2014/08/28,12:20,0.641,0.437,0.671,0.615,0.608,0.268,0.230,east-northeast,1.0,No
2014/08/28,12:30,0.639,0.438,0.672,0.614,0.609,0.270,0.230,east-northeast,1.4,No
2014/08/28,12:40,0.641,0.437,0.671,0.616,0.606,0.268,0.231,east,1.3,No
2014/08/28,12:50,0.639,0.436,0.672,0.617,0.608,0.267,0.231,east,1.0,No
2014/08/28,13:00,0.640,0.437,0.671,0.618,0.608,0.268,0.229,east,0.9,No
2014/08/28,13:10,0.638,0.438,0.672,0.617,0.608,0.270,0.231,-,CALM,No
2014/08/28,13:20,0.639,0.439,0.671,0.619,0.608,0.269,0.231,east-southeast,1.0,No
2014/08/28,13:30,0.642,0.439,0.671,0.617,0.608,0.269,0.229,southeast,0.7,No
2014/08/28,13:40,0.643,0.438,0.671,0.617,0.607,0.268,0.230,east-southeast,0.8,No
2014/08/28,13:50,0.642,0.438,0.669,0.618,0.607,0.269,0.232,-,CALM,No
2014/08/28,14:00,0.641,0.437,0.670,0.617,0.608,0.269,0.231,-,CALM,No
2014/08/28,14:10,0.642,0.439,0.671,0.617,0.607,0.268,0.230,east,1.0,No
2014/08/28,14:20,0.642,0.440,0.669,0.616,0.607,0.269,0.232,east-southeast,1.0,No
2014/08/28,14:30,0.642,0.439,0.670,0.617,0.607,0.269,0.232,east-southeast,1.4,No
2014/08/28,14:40,0.641,0.438,0.670,0.618,0.606,0.268,0.231,east-southeast,1.6,Yes
2014/08/28,14:50,0.644,0.439,0.669,0.618,0.608,0.269,0.232,southeast,1.3,No
2014/08/28,15:00,0.642,0.437,0.671,0.615,0.608,0.269,0.233,southeast,2.1,No
2014/08/28,15:10,0.641,0.438,0.672,0.619,0.607,0.268,0.230,south-southeast,1.3,No
2014/08/28,15:20,0.642,0.438,0.670,0.618,0.608,0.269,0.232,south-southeast,1.8,No
2014/08/28,15:30,0.640,0.439,0.668,0.618,0.607,0.270,0.233,south-southeast,2.0,No
2014/08/28,15:40,0.639,0.438,0.670,0.617,0.606,0.268,0.230,south-southeast,1.5,No
2014/08/28,15:50,0.638,0.437,0.669,0.614,0.608,0.269,0.233,south,1.0,No
2014/08/28,16:00,0.639,0.437,0.670,0.614,0.606,0.270,0.232,southwest,1.5,No
2014/08/28,16:10,0.639,0.437,0.670,0.615,0.610,0.269,0.230,southwest,1.4,No
2014/08/28,16:20,0.639,0.437,0.671,0.613,0.608,0.270,0.232,south-southwest,1.1,No
2014/08/28,16:30,0.639,0.437,0.670,0.615,0.609,0.271,0.232,south,1.5,No
2014/08/28,16:40,0.639,0.438,0.671,0.615,0.608,0.269,0.230,south,1.8,No
2014/08/28,16:50,0.639,0.440,0.670,0.616,0.609,0.270,0.233,south,2.2,No
2014/08/28,17:00,0.639,0.438,0.670,0.615,0.610,0.269,0.232,south,2.4,No
2014/08/28,17:10,0.639,0.437,0.670,0.617,0.608,0.270,0.232,south,2.2,No
2014/08/28,17:20,0.639,0.438,0.668,0.618,0.607,0.271,0.232,south,1.9,No
2014/08/28,17:30,0.637,0.438,0.669,0.618,0.609,0.269,0.230,south-southwest,1.9,No
2014/08/28,17:40,0.637,0.437,0.669,0.615,0.609,0.270,0.231,south,2.2,No
2014/08/28,17:50,0.636,0.438,0.670,0.612,0.608,0.271,0.231,south,2.5,No
2014/08/28,18:00,0.635,0.438,0.668,0.613,0.608,0.270,0.230,south,1.9,No
2014/08/28,18:10,0.638,0.436,0.669,0.614,0.608,0.270,0.232,south,1.5,No
2014/08/28,18:20,0.637,0.438,0.670,0.612,0.606,0.269,0.233,south,1.0,No
2014/08/28,18:30,0.638,0.438,0.671,0.613,0.609,0.270,0.231,southeast,0.7,No
2014/08/28,18:40,0.637,0.438,0.669,0.613,0.610,0.272,0.234,-,CALM,No
2014/08/28,18:50,0.636,0.436,0.667,0.611,0.606,0.270,0.231,-,CALM,No
2014/08/28,19:00,0.634,0.437,0.670,0.612,0.607,0.270,0.233,south-southwest,1.0,No
2014/08/28,19:10,0.636,0.437,0.668,0.611,0.608,0.270,0.233,south,0.7,No
2014/08/28,19:20,0.635,0.438,0.671,0.610,0.608,0.269,0.231,south-southeast,0.8,Yes
2014/08/28,19:30,0.637,0.438,0.668,0.612,0.608,0.271,0.232,southeast,0.8,Yes
2014/08/28,19:40,0.636,0.438,0.668,0.613,0.607,0.270,0.232,south-southeast,1.5,No
2014/08/28,19:50,0.635,0.436,0.671,0.613,0.607,0.269,0.232,south-southeast,1.2,No
2014/08/28,20:00,0.636,0.437,0.669,0.613,0.607,0.270,0.234,south,1.4,No
2014/08/28,20:10,0.639,0.435,0.667,0.612,0.607,0.269,0.232,south,0.7,No
2014/08/28,20:20,0.634,0.436,0.668,0.612,0.606,0.272,0.232,south-southwest,1.0,No
2014/08/28,20:30,0.634,0.437,0.668,0.609,0.606,0.269,0.232,south-southeast,0.7,No
2014/08/28,20:40,0.633,0.437,0.667,0.609,0.607,0.270,0.234,south,1.1,No
2014/08/28,20:50,0.635,0.437,0.670,0.607,0.606,0.271,0.233,south-southeast,1.4,No
2014/08/28,21:00,0.633,0.436,0.669,0.608,0.607,0.269,0.231,south-southwest,0.8,No
2014/08/28,21:10,0.634,0.436,0.670,0.608,0.605,0.270,0.233,south,0.7,No
2014/08/28,21:20,0.632,0.436,0.667,0.611,0.605,0.271,0.233,south-southwest,0.7,No
2014/08/28,21:30,0.635,0.435,0.670,0.610,0.604,0.269,0.233,southwest,1.3,No
2014/08/28,21:40,0.633,0.436,0.671,0.611,0.605,0.270,0.233,west-southwest,1.4,No
2014/08/28,21:50,0.634,0.436,0.671,0.611,0.606,0.269,0.231,south,1.2,No
2014/08/28,22:00,0.635,0.436,0.668,0.610,0.607,0.271,0.234,south-southwest,1.0,No
2014/08/28,22:10,0.634,0.436,0.671,0.613,0.607,0.270,0.231,south-southwest,1.2,No
2014/08/28,22:20,0.635,0.436,0.668,0.611,0.608,0.270,0.234,southwest,1.8,No
2014/08/28,22:30,0.635,0.433,0.668,0.609,0.608,0.271,0.233,southwest,1.8,No
2014/08/28,22:40,0.635,0.434,0.669,0.607,0.608,0.270,0.233,south-southwest,1.9,No
2014/08/28,22:50,0.633,0.435,0.667,0.608,0.608,0.271,0.235,southwest,2.2,No
2014/08/28,23:00,0.632,0.434,0.668,0.610,0.607,0.270,0.233,south-southwest,2.2,No
2014/08/28,23:10,0.633,0.434,0.668,0.608,0.606,0.270,0.233,southwest,2.4,No
2014/08/28,23:20,0.633,0.434,0.667,0.608,0.606,0.273,0.233,south-southwest,2.5,No
2014/08/28,23:30,0.632,0.435,0.667,0.608,0.605,0.270,0.233,south-southwest,2.6,No
2014/08/28,23:40,0.634,0.435,0.669,0.608,0.606,0.271,0.234,south-southwest,1.9,No
2014/08/28,23:50,0.634,0.434,0.669,0.609,0.605,0.272,0.233,southwest,1.7,No
